Date String (YYYY-MM-DD hh:mm:ss) UTC,Instrument flags,absolute air pressure of the measurement (hPa),sample flow rate (lpm),inlet stack bypass flow (lpm),air temperature of the measurement (°C),ambient temperature measured by the external sensor (°C),aerosol sample conditioner tube jacket temperature (°C),OPC LED temperature (°C),internal box temperature (°C),relative humidity of the measurement (%),span deviation,mass concentration of particles derived from Lorenz-Mie calculation of OPC scattering (μg/m³),mass concentration of particles derived from Lorenz-Mie calculation of OPC scattering (μg/m³),mass concentration of particles derived from Lorenz-Mie calculation of OPC scattering (μg/m³)
DateTimeUTC,F1_M11,P_M11,Q1_M11,Q2_M11,T1_M11,T2_M11,T3_M11,T4_M11,T5_M11,U1_M11,ZSPAN_M11,X0_M11,X2_M11,X1_M11
2023-06-16 17:00:00,SystemResetWarning,0833.6,5.00,000.00,030.1,027.1,000.0,038.7,031.5,29.8,0000.0,0005.98,0003.68,0003.47
2023-06-16 17:01:00,SystemResetWarning,0833.6,5.00,000.00,030.1,027.4,000.0,038.7,031.5,30.0,0000.0,0006.10,0003.73,0003.52
2023-06-16 17:02:00,SystemResetWarning,0833.6,5.00,000.00,030.1,027.6,000.0,038.7,031.5,29.9,0000.0,0006.28,0003.79,0003.56
2023-06-16 17:03:00,SystemResetWarning,0833.6,5.00,000.00,030.1,027.8,000.0,038.7,031.6,29.7,0000.0,0006.40,0003.85,0003.62
2023-06-16 17:04:00,SystemResetWarning,0833.7,5.01,000.00,030.1,028.0,000.0,038.7,031.6,29.7,0000.0,0006.63,0003.94,0003.67
2023-06-16 17:05:00,SystemResetWarning,0833.7,4.99,000.00,030.1,028.1,000.0,038.7,031.6,29.2,0000.0,0006.82,0004.01,0003.71
2023-06-16 17:06:00,SystemResetWarning,0833.7,5.00,000.00,030.1,028.2,000.0,038.7,031.6,29.7,0000.0,0006.92,0004.05,0003.75
2023-06-16 17:07:00,SystemResetWarning,0833.7,5.00,000.00,030.1,028.3,000.0,038.7,031.7,30.0,0000.0,0006.95,0004.09,0003.79
2023-06-16 17:08:00,SystemResetWarning,0833.7,5.00,000.00,030.1,028.4,000.0,038.7,031.7,30.2,0000.0,0006.92,0004.10,0003.82
2023-06-16 17:09:00,SystemResetWarning,0833.7,5.00,000.00,030.1,028.5,000.0,038.7,031.7,29.5,0000.0,0006.45,0004.11,0003.83
2023-06-16 17:10:00,SystemResetWarning,0833.7,5.00,000.00,030.2,028.5,000.0,038.7,031.7,30.3,0000.0,0005.95,0004.10,0003.85
2023-06-16 17:11:00,SystemResetWarning,0833.7,5.00,000.00,030.2,028.6,000.0,038.7,031.8,30.0,0000.0,0005.95,0004.12,0003.87
2023-06-16 17:12:00,SystemResetWarning,0833.7,5.00,000.00,030.2,028.6,000.0,038.7,031.8,29.8,0000.0,0006.07,0004.17,0003.90
2023-06-16 17:13:00,SystemResetWarning,0833.7,5.00,000.00,030.2,028.7,000.0,038.7,031.8,29.6,0000.0,0006.02,0004.17,0003.91
2023-06-16 17:14:00,SystemResetWarning,0833.6,5.00,000.00,030.2,028.7,000.0,038.7,031.8,30.0,0000.0,0006.01,0004.18,0003.92
2023-06-16 17:15:00,SystemResetWarning,0833.6,5.00,000.00,030.3,028.8,000.0,038.8,031.8,30.3,0000.0,0006.01,0004.17,0003.92
2023-06-16 17:16:00,SystemResetWarning,0833.6,5.00,000.00,030.3,028.8,000.0,038.8,031.8,30.1,0000.0,0006.02,0004.18,0003.93
2023-06-16 17:17:00,SystemResetWarning,0833.6,5.00,000.00,030.3,028.8,000.0,038.8,031.9,30.8,0000.0,0005.84,0004.16,0003.91
2023-06-16 17:18:00,SystemResetWarning,0833.6,5.00,000.00,030.3,028.8,000.0,038.8,031.9,30.3,0000.0,0005.91,0004.16,0003.90
2023-06-16 17:19:00,SystemResetWarning,0833.6,5.00,000.00,030.3,028.9,000.0,038.8,031.9,30.4,0000.0,0005.94,0004.18,0003.92
2023-06-16 17:20:00,SystemResetWarning,0833.6,5.00,000.00,030.4,028.8,000.0,038.8,031.9,30.7,0000.0,0006.14,0004.18,0003.92
2023-06-16 17:21:00,SystemResetWarning,0833.5,4.98,000.00,030.4,027.0,000.0,038.8,031.9,30.1,0000.0,0006.13,0004.18,0003.93
2023-06-16 17:22:00,SystemResetWarning,0833.6,5.00,000.00,030.3,025.5,000.0,038.7,031.7,30.5,0000.0,0006.15,0004.18,0003.92
2023-06-16 17:23:00,SystemResetWarning,0833.6,5.00,000.00,030.2,025.4,000.0,038.7,031.5,30.5,0000.0,0006.84,0004.18,0003.91
2023-06-16 17:24:00,SystemResetWarning,0833.5,5.01,000.00,030.1,025.7,000.0,038.7,031.3,31.3,0000.0,0006.97,0004.17,0003.91
2023-06-16 17:25:00,SystemResetWarning,0833.5,5.00,000.00,030.1,026.1,000.0,038.7,031.3,31.0,0000.0,0007.00,0004.17,0003.90
2023-06-16 17:26:00,SystemResetWarning,0833.5,5.00,000.00,030.0,026.6,000.0,038.7,031.3,30.9,0000.0,0006.97,0004.17,0003.92
2023-06-16 17:27:00,SystemResetWarning,0833.6,5.00,000.00,030.0,026.9,000.0,038.7,031.4,31.0,0000.0,0007.02,0004.19,0003.95
2023-06-16 17:28:00,SystemResetWarning,0833.6,5.00,000.00,030.0,027.2,000.0,038.6,031.4,30.6,0000.0,0007.26,0004.25,0003.99
2023-06-16 17:29:00,SystemResetWarning,0833.6,4.99,000.00,030.0,027.5,000.0,038.6,031.5,30.2,0000.0,0007.35,0004.29,0004.03
2023-06-16 17:30:00,SystemResetWarning,0833.6,5.00,000.00,030.0,027.7,000.0,038.6,031.5,30.2,0000.0,0007.47,0004.34,0004.07
2023-06-16 17:31:00,SystemResetWarning,0833.6,5.00,000.00,030.0,027.9,000.0,038.6,031.5,30.2,0000.0,0007.46,0004.40,0004.12
2023-06-16 17:32:00,SystemResetWarning,0833.6,5.00,000.00,030.0,028.1,000.0,038.6,031.6,30.2,0000.0,0007.50,0004.46,0004.17
2023-06-16 17:33:00,SystemResetWarning,0833.5,5.01,000.00,030.0,028.2,000.0,038.6,031.6,29.7,0000.0,0007.59,0004.53,0004.22
2023-06-16 17:34:00,SystemResetWarning,0833.6,5.01,000.00,030.1,028.3,000.0,038.6,031.6,29.7,0000.0,0007.10,0004.53,0004.24
2023-06-16 17:35:00,SystemResetWarning,0833.6,4.99,000.00,030.1,028.4,000.0,038.6,031.7,29.6,0000.0,0007.07,0004.56,0004.27
2023-06-16 17:36:00,SystemResetWarning,0833.5,4.99,000.00,030.1,028.5,000.0,038.6,031.7,29.8,0000.0,0007.05,0004.56,0004.28
2023-06-16 17:37:00,SystemResetWarning,0833.5,4.99,000.00,030.1,028.5,000.0,038.6,031.7,29.4,0000.0,0007.05,0004.56,0004.28
2023-06-16 17:38:00,SystemResetWarning,0833.4,5.01,000.00,030.2,028.6,000.0,038.7,031.7,29.9,0000.0,0006.92,0004.53,0004.25
2023-06-16 17:39:00,SystemResetWarning,0833.4,5.01,000.00,030.2,028.6,000.0,038.7,031.7,29.5,0000.0,0006.71,0004.48,0004.23
2023-06-16 17:40:00,SystemResetWarning,0833.5,5.00,000.00,030.2,028.7,000.0,038.7,031.8,29.1,0000.0,0006.64,0004.47,0004.20
2023-06-16 17:41:00,SystemResetWarning,0833.4,5.00,000.00,030.2,028.7,000.0,038.7,031.8,28.9,0000.0,0006.48,0004.43,0004.16
2023-06-16 17:42:00,SystemResetWarning,0833.4,5.00,000.00,030.2,028.8,000.0,038.7,031.8,28.4,0000.0,0006.36,0004.37,0004.11
2023-06-16 17:43:00,SystemResetWarning,0833.4,5.00,000.00,030.3,028.8,000.0,038.7,031.8,29.0,0000.0,0006.29,0004.32,0004.06
2023-06-16 17:44:00,SystemResetWarning,0833.4,5.00,000.00,030.3,028.8,000.0,038.7,031.8,29.2,0000.0,0006.12,0004.24,0003.99
2023-06-16 17:45:00,SystemResetWarning,0833.4,4.99,000.00,030.3,028.3,000.0,038.7,031.9,29.4,0000.0,0005.98,0004.21,0003.97
2023-06-16 17:46:00,SystemResetWarning,0833.4,5.00,000.00,030.3,026.2,000.0,038.7,031.6,28.9,0000.0,0006.04,0004.20,0003.97
2023-06-16 17:47:00,SystemResetWarning,0833.4,5.01,000.00,030.2,025.4,000.0,038.6,031.6,29.6,0000.0,0006.13,0004.20,0003.96
2023-06-16 17:48:00,SystemResetWarning,0833.4,5.01,000.00,030.1,025.6,000.0,038.6,031.3,30.2,0000.0,0006.14,0004.20,0003.96
2023-06-16 17:49:00,SystemResetWarning,0833.3,5.00,000.00,030.0,025.9,000.0,038.6,031.3,30.0,0000.0,0006.67,0004.23,0003.98
2023-06-16 17:50:00,SystemResetWarning,0833.4,5.00,000.00,030.0,026.4,000.0,038.6,031.3,30.2,0000.0,0007.32,0004.25,0003.99
2023-06-16 17:51:00,SystemResetWarning,0833.4,4.98,000.00,030.0,026.8,000.0,038.6,031.3,29.8,0000.0,0007.59,0004.26,0004.00
2023-06-16 17:52:00,SystemResetWarning,0833.4,5.00,000.00,030.0,027.1,000.0,038.6,031.3,29.5,0000.0,0007.75,0004.27,0004.03
2023-06-16 17:53:00,SystemResetWarning,0833.4,5.01,000.00,030.0,027.4,000.0,038.6,031.4,29.3,0000.0,0007.86,0004.32,0004.06
2023-06-16 17:54:00,SystemResetWarning,0833.4,4.99,000.00,030.0,027.7,000.0,038.6,031.5,29.5,0000.0,0008.08,0004.33,0004.06
2023-06-16 17:55:00,SystemResetWarning,0833.3,4.99,000.00,030.0,027.9,000.0,038.6,031.5,29.5,0000.0,0008.46,0004.32,0004.05
2023-06-16 17:56:00,SystemResetWarning,0833.3,4.99,000.00,030.0,028.0,000.0,038.6,031.5,29.8,0000.0,0008.48,0004.32,0004.04
2023-06-16 17:57:00,SystemResetWarning,0833.3,5.00,000.00,030.0,028.2,000.0,038.6,031.5,29.3,0000.0,0008.46,0004.31,0004.01
2023-06-16 17:58:00,SystemResetWarning,0833.3,5.01,000.00,030.0,028.3,000.0,038.6,031.6,29.5,0000.0,0008.34,0004.27,0003.99
2023-06-16 17:59:00,SystemResetWarning,0833.2,5.00,000.00,030.1,028.4,000.0,038.6,031.6,29.3,0000.0,0008.27,0004.23,0003.96
